Presure
230 238 234 239 241 228 237 223 237 226 224 221 216 229 229 223 210 218 217 213 213 211 211 209 214 204 204 211 195 201 200 205 193 197 210 207 204 199 202 201 204 209 194 196
227 238 243 246 226 242 248 240 240 217 218 225 229 233 235 230 219 223 211 223 224 210 230 240 223 208 216 209 203 204 221 213 214 214 214 226 209 211 213 209 198 204 205 213
258 252 242 243 242 220 230 235 242 259 234 239 239 239 238 236 230 219 222 224 219 227 217 211 221 231 210 227 240 211 123 217 213 221 237 211 223 224 213 215 217 208 209 212
264 262 257 250 256 250 251 259 258 256 245 264 242 251 241 238 241 222 228 230 220 232 219 208 216 214 247 225 218 217 240 248 235 230 240 231 235 214 216 237 216 223 225 225
299 296 285 268 256 254 264 219 256 259 252 258 248 257 256 245 260 245 245 239 243 232 243 252 220 259 228 248 252 222 240 242 245 243 244 216 251 246 284 283 291 278 257 272
376 367 361 353 354 363 326 318 273 269 279 273 274 263 265 267 263 272 245 250 240 260 228 241 251 251 246 244 257 246 248 238 287 262 260 290 282 242 252 265 270 254 248 260
381 370 358 360 356 361 346 341 337 337 338 334 306 300 269 296 275 276 275 276 275 268 292 313 277 270 271 262 293 254 267 270 294 277 292 284 288 285 277 252 256 265 274 274
382 381 372 384 386 366 345 349 355 351 362 332 334 341 334 317 327 363 335 334 280 326 307 284 294 336 343 347 336 329 322 308 293 255 297 301 297 279 272 278 279 275 268 269
369 365 367 373 380 365 363 368 371 366 372 384 353 338 375 358 349 356 367 361 349 340 315 322 320 347 341 341 328 327 322 318 312 305 300 295 293 293 296 291 295 280 279 274
376 362 355 360 351 349 347 352 358 362 366 369 365 354 340 351 345 344 336 324 326 327 323 350 359 353 350 357 358 353 348 341 336 338 335 338 321 313 303 294 278 280 280 276
389 383 358 360 354 354 353 351 350 346 349 347 352 355 360 358 344 339 334 322 333 340 337 327 310 328 333 332 322 320 322 322 315 313 316 316 309 299 295 285 282 282 280 277
381 365 385 376 364 351 346 344 340 341 347 353 351 350 340 338 343 343 345 334 326 332 324 313 295 298 312 314 320 320 323 317 313 306 305 301 297 285 281 277 275 278 282 285
374 370 360 359 378 376 365 340 339 339 338 338 332 332 329 341 331 318 316 317 313 308 305 296 285 300 310 301 306 309 311 311 319 311 306 301 301 292 270 266 272 276 276 276
363 368 366 362 359 358 389 386 347 344 350 350 329 323 319 320 322 340 328 314 313 309 307 297 289 297 302 304 292 300 296 289 288 308 296 299 291 288 278 279 277 274 274 267
357 354 358 358 360 377 379 389 380 376 371 356 342 335 315 318 322 316 311 310 316 313 305 303 284 294 308 292 290 284 290 293 314 292 300 315 284 281 282 280 276 273 275 276
350 362 359 355 357 355 354 356 358 361 369 385 402 353 339 323 316 312 322 316 309 310 306 290 300 296 288 280 299 305 307 310 311 297 299 301 312 290 285 281 277 275 269 269
351 342 349 346 345 351 356 359 362 367 382 418 475 431 333 330 313 312 317 305 303 292 282 286 294 277 297 285 284 299 305 301 298 299 302 298 306 304 307 295 284 288 282 288
348 348 351 355 358 361 362 369 383 413 427 439 457 425 349 325 306 301 295 292 287 296 294 289 287 296 297 282 282 280 290 297 297 297 300 302 298 297 297 302 244 305 308 299
361 366 369 369 366 397 396 411 404 413 442 389 351 329 344 313 293 296 288 284 285 289 293 294 290 276 280 278 284 292 293 276 283 291 295 300 303 192 269 298 298 298 304 303
392 408 384 400 402 398 400 396 417 394 350 337 345 336 324 304 289 277 289 295 287 285 293 288 278 278 280 274 276 283 287 284 293 291 296 311 351 341 305 296 299 291 283 281
390 397 409 415 410 427 449 427 345 331 338 326 308 301 283 291 294 274 282 284 292 280 284 273 274 278 280 230 280 270 261 287 300 313 317 330 370 316 314 302 304 305 299 295
371 366 367 373 372 381 341 326 330 315 305 301 301 288 302 285 301 279 278 278 273 269 261 272 289 284 274 217 207 294 298 299 297 329 326 328 338 357 313 301 300 297 290 286
342 340 334 326 316 310 316 320 316 301 298 293 280 287 295 142 222 292 287 277 276 282 277 280 270 281 274 263 267 284 297 300 300 308 332 323 339 355 331 317 301 289 284 284
320 327 336 301 313 323 325 321 317 294 301 303 294 287 288 286 297 282 279 284 294 273 258 264 274 279 287 290 285 270 300 336 380 313 436 343 347 355 321 299 292 300 298 293
304 296 320 298 292 321 319 282 303 314 277 284 294 304 299 290 296 301 283 283 281 274 275 280 285 289 284 258 307 316 373 391 341 378 392 354 344 351 311 299 295 292 290 286
312 312 307 305 306 298 291 285 305 286 292 297 281 312 316 288 284 299 293 284 290 288 270 266 285 293 300 316 339 403 302 339 344 349 336 335 344 337 307 292 287 285 282 283
322 315 307 310 309 310 311 303 306 306 308 307 292 306 302 289 298 303 295 295 288 279 290 289 309 314 328 339 394 331 330 330 333 333 340 343 342 330 305 292 288 289 288 285
Wind_Speed
141 138 135 135 136 136 134 139 133 131 133 136 137 125 118 116 123 120 121 115 113 115 119 112 113 111 113 115 109 122 120 115 89 98 111 114 108 103 108 106 103 110 105 101
141 143 142 137 133 138 137 138 137 129 137 137 133 128 126 120 119 120 124 125 124 115 126 123 117 110 114 116 114 110 126 115 111 105 110 118 115 114 111 112 106 110 112 106
144 146 144 142 141 131 138 140 141 139 136 133 133 130 126 124 122 123 126 127 125 128 120 115 120 127 115 128 125 114 58 121 121 123 108 109 112 115 113 115 116 110 109 113
144 143 143 141 142 142 144 146 145 139 140 137 132 138 126 128 125 127 131 126 125 132 125 112 114 117 125 123 121 122 120 116 111 108 109 111 110 109 113 120 112 121 122 122
145 143 143 139 139 143 143 109 144 146 138 140 138 138 136 128 133 130 133 128 130 128 130 129 122 128 119 119 122 109 120 122 122 114 119 115 127 110 97 100 89 93 98 90
91 97 101 105 102 100 125 131 143 144 147 134 145 135 131 135 132 135 127 131 129 132 126 133 131 129 121 120 122 116 121 116 123 124 114 100 98 100 98 95 95 98 100 95
75 82 87 87 89 90 98 100 105 104 106 108 127 126 124 128 132 133 130 127 127 130 130 123 130 127 123 119 121 111 120 108 97 93 89 94 88 85 86 94 98 97 89 85
57 60 65 62 67 80 87 86 88 88 89 98 99 98 100 105 102 76 96 92 108 99 112 116 105 77 71 67 68 74 78 82 85 89 84 84 80 81 86 85 82 85 83 81
54 55 55 53 53 60 62 61 61 71 68 57 78 83 63 68 72 65 56 55 61 63 76 74 75 57 60 60 64 66 68 70 71 72 77 76 68 72 72 75 68 73 71 71
51 52 55 55 56 57 56 53 54 55 53 49 53 55 61 54 56 56 54 58 60 58 59 48 41 40 40 38 38 42 45 50 53 56 61 58 55 57 58 59 64 65 64 66
41 45 53 55 54 55 54 54 56 56 51 48 46 45 45 52 57 55 57 59 57 42 32 28 35 35 34 35 38 41 42 43 45 49 51 49 47 47 48 54 60 60 60 63
38 42 44 49 53 52 53 52 54 54 51 41 41 42 41 41 40 42 44 42 39 32 29 36 48 48 37 37 36 38 37 40 42 46 47 46 45 46 48 53 58 58 60 60
35 37 40 42 48 49 51 53 56 58 52 45 42 38 43 42 43 46 44 41 39 38 41 38 49 35 31 36 32 32 33 34 35 39 42 43 43 46 49 56 60 59 57 54
33 32 34 38 40 40 45 44 58 55 54 52 45 47 43 40 40 43 39 43 41 40 41 43 41 39 38 36 36 34 36 35 35 34 39 43 48 50 53 57 61 58 55 54
32 31 31 34 34 31 34 33 36 46 54 50 46 50 49 45 40 40 41 43 42 43 42 40 45 36 28 33 36 37 41 38 38 37 36 37 50 53 54 58 61 59 58 60
31 29 28 28 27 30 29 30 34 37 41 41 37 48 52 51 44 43 40 40 42 38 37 37 33 30 36 38 30 34 36 33 36 37 38 39 39 55 58 60 60 60 58 58
29 29 28 28 29 30 33 33 34 35 36 37 31 33 51 51 43 36 35 37 34 33 35 34 34 36 32 33 32 31 27 31 34 36 37 37 39 44 50 61 62 63 61 59
28 29 30 30 30 30 30 33 30 27 20 17 13 31 47 45 37 32 32 33 33 33 32 32 31 31 30 31 35 33 33 32 39 42 42 42 44 45 48 47 38 46 49 54
28 30 27 24 23 23 24 18 20 18 15 36 46 40 44 41 34 31 31 33 33 32 32 32 31 32 29 33 36 40 37 32 36 43 44 44 44 27 43 45 40 33 34 37
13 16 13 17 17 17 14 16 18 36 45 43 42 43 42 39 36 33 31 32 34 30 30 30 27 31 33 31 30 35 33 39 48 48 46 43 44 46 49 45 43 37 36 37
14 11 10 7 6 7 10 17 48 44 48 52 50 49 36 41 38 30 27 25 25 29 33 20 20 31 32 28 33 37 37 44 46 43 40 34 32 35 42 42 38 36 38 39
46 43 41 39 38 37 46 45 52 55 52 48 49 38 49 33 46 35 33 35 26 26 17 15 31 41 37 30 24 42 43 44 38 33 24 32 32 29 38 42 40 35 34 34
40 40 40 42 38 39 40 45 52 50 46 44 22 33 46 10 10 39 36 27 31 37 22 23 27 39 40 39 40 43 48 45 37 30 37 31 32 28 34 38 38 36 34 32
30 28 35 29 30 33 41 47 54 21 38 44 34 25 26 14 38 16 16 30 39 19 24 29 36 37 39 41 43 28 43 55 56 29 32 29 29 25 35 36 33 32 33 32
35 33 27 29 32 26 32 20 20 40 14 15 21 42 28 13 25 37 15 17 18 21 28 36 39 40 39 21 43 43 49 34 21 20 15 20 22 23 35 33 31 31 30 29
27 25 25 24 24 23 23 18 16 12 10 14 11 24 35 16 13 25 23 20 29 35 25 25 33 37 38 39 47 37 23 18 14 12 12 13 19 24 34 32 30 30 27 26
21 21 22 17 15 14 12 14 11 12 10 8 14 13 18 14 21 26 27 30 35 28 34 26 42 37 32 42 25 15 13 11 10 9 10 10 14 24 34 32 30 30 27 25
Wind_Direction
265 265 266 266 266 263 264 264 266 264 266 267 268 269 267 264 269 269 272 269 268 269 268 267 267 266 270 267 271 272 277 274 275 278 278 273 274 275 275 274 276 276 273 277
263 264 265 264 263 264 264 264 265 264 265 265 266 266 266 266 265 264 270 269 270 271 272 272 269 271 269 269 274 274 276 277 277 275 274 270 272 271 271 273 271 273 274 278
260 261 262 263 262 264 262 263 263 263 264 263 265 266 266 266 266 266 267 268 270 272 271 275 272 272 274 273 271 275 278 276 280 277 275 270 270 271 273 273 273 274 276 277
259 259 258 261 260 261 263 262 262 262 264 263 264 264 262 262 261 264 266 266 267 265 268 274 273 275 268 272 276 276 277 278 272 272 275 271 273 272 271 272 275 273 274 276
260 261 259 258 260 260 259 265 264 262 263 262 264 263 262 263 262 263 264 265 266 268 268 268 270 271 274 273 274 271 278 279 276 275 278 271 279 275 277 277 276 273 274 275
255 258 260 259 257 257 256 257 257 259 261 262 263 264 267 265 264 263 264 264 268 267 269 270 269 270 273 274 273 273 275 277 273 274 273 270 269 277 277 276 274 274 275 276
252 251 252 251 254 252 256 255 256 256 259 259 260 260 263 263 266 266 267 267 267 268 267 266 268 272 273 272 272 270 272 272 268 269 266 267 271 269 267 270 274 276 277 277
250 250 251 252 250 250 252 254 252 255 252 255 258 259 261 260 262 258 267 268 264 266 268 269 269 266 265 264 261 261 261 262 264 267 266 266 265 266 266 267 268 269 270 272
252 251 250 249 249 250 250 249 249 252 252 248 252 255 251 252 257 256 255 255 257 259 264 265 267 264 264 263 262 261 261 261 262 262 263 264 264 263 260 261 261 262 262 264
249 250 251 248 248 249 248 247 248 249 251 246 244 245 250 247 249 251 252 255 257 261 264 267 265 265 263 262 262 259 257 256 257 258 258 259 258 256 255 255 256 257 259 263
250 245 249 252 249 247 246 245 247 248 246 242 241 241 239 239 244 245 247 249 252 250 252 257 266 263 256 253 254 255 255 254 253 255 256 254 251 252 254 252 255 256 256 258
248 250 244 248 249 248 247 246 246 246 243 236 237 234 235 235 232 231 231 236 240 230 228 218 246 254 253 253 253 256 257 257 254 253 253 252 247 244 247 249 253 256 257 259
247 244 245 247 247 248 245 244 245 246 245 238 235 231 228 225 223 226 229 230 232 229 229 228 248 249 241 249 254 255 257 257 261 254 250 251 250 245 244 249 252 254 258 261
246 243 243 246 249 251 252 250 242 246 243 237 232 231 230 225 222 220 211 216 219 222 220 227 236 243 238 240 248 250 252 246 250 253 244 243 242 242 240 246 251 257 259 263
239 242 242 242 245 243 247 244 246 246 248 244 229 226 226 223 214 211 214 218 219 214 216 211 234 244 240 240 245 248 252 251 256 244 246 249 240 243 243 244 248 254 257 260
237 235 233 237 240 243 247 247 249 251 254 252 242 216 215 215 207 209 209 209 211 211 208 222 229 231 236 242 250 253 250 258 258 249 247 246 249 241 243 245 249 252 255 259
233 241 242 245 249 250 251 250 254 257 260 263 260 217 202 201 199 196 192 199 201 208 220 225 221 237 239 244 252 260 268 258 257 258 257 252 247 244 243 242 246 249 253 257
239 244 248 253 256 256 256 253 252 250 243 240 208 176 188 188 189 190 198 202 212 209 212 220 227 229 232 243 250 257 260 260 256 257 254 249 247 247 249 250 263 251 250 252
247 251 254 247 250 254 243 232 216 198 186 147 161 175 176 178 184 194 203 211 216 215 222 226 224 243 245 254 261 264 262 264 271 267 260 258 256 279 259 254 253 251 247 246
234 238 221 230 217 214 196 190 186 151 149 152 152 156 163 156 178 196 206 207 216 222 213 219 233 244 251 263 269 270 271 273 271 268 273 271 263 257 246 248 249 245 242 240
146 154 170 176 159 194 185 161 140 143 141 141 153 157 187 173 171 199 192 214 203 214 227 238 255 259 263 269 268 259 263 266 270 275 276 280 277 246 236 241 239 238 239 241
100 100 98 98 104 110 127 138 143 149 154 159 161 183 170 193 172 196 207 210 223 219 223 252 256 260 266 271 277 282 278 272 278 288 275 277 270 268 232 237 235 230 230 234
111 111 110 110 115 125 137 147 155 160 167 174 196 185 184 277 241 195 203 218 226 235 249 261 255 265 264 269 279 282 285 291 287 277 281 262 262 264 225 218 221 230 236 239
90 101 108 89 119 138 150 158 163 175 182 180 183 192 201 204 210 219 235 230 234 236 237 249 254 258 267 272 275 283 291 295 293 276 282 254 249 247 215 221 226 230 232 235
84 91 99 90 96 138 159 114 159 184 124 136 184 205 221 236 233 228 231 248 238 237 248 254 260 265 268 264 283 292 300 297 278 278 265 241 246 235 214 218 222 226 229 233
75 77 81 89 89 107 117 120 161 129 149 183 181 224 226 236 247 253 252 249 261 258 257 258 267 270 278 286 305 297 284 276 270 259 251 247 245 223 213 222 227 232 239 245
67 74 79 74 82 77 91 120 127 146 160 189 205 222 236 237 252 251 248 243 242 255 255 267 267 277 295 304 286 270 278 288 291 279 267 248 232 217 215 227 234 240 247 253